Flag Weather past 2 weeks in Amiens, France

Now
46 °F

Fog.


Feels Like: 43 °F
Forecast: 45 / 50 °F
Wind: 7 mph from Southeast

Location: Beauvais Airport

Current Time: Nov 23, 2014 at 7:03:56 AM

Latest Report: Nov 23, 2014 at 6:30 AM


Visibility: 1 mi

Pressure: 29.98 "Hg

Humidity: 100%

Dew point: 46 °F

Location of AmiensLocation

Historic Weather in Amiens — Graph

°F

Amiens temperature yesterday

Maximum temperature yesterday: 55 °F (at 1:30 PM)
Minimum temperature yesterday: 41 °F (at 3:00 AM)
Average temperature yesterday: 49 °F

Past Weeks' High & Low Weather Summary

 TemperatureHumidityPressure
High59 °F (Nov 11, 3:30 PM)100% (Nov 8, 8:30 AM)30.24 "Hg (Nov 8, 8:30 AM)
Low37 °F (Nov 10, 2:00 AM)63% (Nov 12, 3:30 PM)29.45 "Hg (Nov 12, 3:00 AM)
Average48 °F92%29.77 "Hg
* Reported Nov 8 5:30 AM — Nov 23 5:30 AM, Amiens, Weather by CustomWeather, © 2014

Note: Actual official high and low records may vary slightly from our data, if they occured in-between our weather recording intervals... More about our weather records

Advertising

Amiens weather history for previous 24 hours

 ConditionsComfort  
Time TempWeatherWind HumidityBarometerVisibility
5:30 AM
Nov 23
46 °FFog.1 mph100%29.98 "Hg0 mi
5:00 AM46 °FFog.7 mph100%29.98 "Hg1 mi
4:30 AM46 °FLight fog.6 mph100%29.98 "Hg1 mi
3:30 AM45 °FFog.3 mph100%29.98 "Hg0 mi
3:00 AM46 °FLight fog.6 mph100%30.01 "Hg1 mi
2:30 AM46 °FFog.3 mph100%30.01 "Hg1 mi
2:00 AM48 °FFog.5 mph94%30.01 "Hg1 mi
1:30 AM48 °FFog.6 mph100%30.01 "Hg2 mi
1:00 AM50 °FFog.3 mph100%30.01 "Hg3 mi
12:30 AM50 °FFog.3 mph100%30.01 "Hg3 mi
12:00 AM52 °FFog.5 mph94%30.01 "Hg3 mi
11:30 PM
Nov 22
50 °FFog.3 mph100%30.01 "Hg3 mi
11:00 PM52 °FClear.5 mph94%30.01 "Hg4 mi
10:30 PM52 °FClear.3 mph94%30.01 "Hg4 mi
10:00 PM50 °FClear.5 mph100%30.04 "Hg4 mi
9:30 PM50 °FClear.3 mph100%30.04 "Hg4 mi
9:00 PM52 °FClear.2 mph94%30.01 "Hg5 mi
8:30 PM52 °FLight rain. Overcast.3 mph94%30.01 "Hg5 mi
8:00 PM52 °FLight rain. Clear.6 mph94%30.01 "HgN/A
7:30 PM52 °FMostly cloudy.3 mph94%30.01 "HgN/A
7:00 PM52 °FPassing clouds.6 mph94%30.01 "HgN/A
6:30 PM52 °FPassing clouds.3 mph94%30.01 "HgN/A
6:00 PM52 °FOvercast.6 mph94%30.01 "HgN/A
5:30 PM52 °FLight rain. Clear.6 mph94%30.01 "HgN/A
5:00 PM54 °FClear.6 mph88%29.98 "HgN/A
4:30 PM55 °FClear.5 mph88%29.98 "HgN/A
4:00 PM55 °FClear.6 mph88%29.98 "HgN/A
3:30 PM55 °FClear.8 mph88%29.98 "HgN/A
3:00 PM55 °FClear.8 mph88%29.98 "HgN/A
2:30 PM55 °FClear.7 mph88%29.98 "HgN/A
2:00 PM55 °FClear.5 mph88%29.98 "HgN/A
1:30 PM55 °FClear.6 mph88%29.98 "HgN/A
1:00 PM54 °FClear.6 mph88%29.98 "HgN/A
12:30 PM54 °FClear.7 mph88%29.98 "HgN/A
12:00 PM52 °FClear.7 mph94%30.01 "HgN/A
11:30 AM52 °FClear.8 mph94%30.01 "HgN/A
11:00 AM52 °FClear.9 mph94%30.01 "Hg6 mi
10:30 AM50 °FClear.8 mph100%30.01 "Hg4 mi
10:00 AM48 °FFog.9 mph100%30.01 "Hg3 mi
9:30 AM46 °FFog.5 mph100%30.01 "Hg2 mi
9:00 AM43 °FFog.3 mph100%30.01 "Hg1 mi
8:30 AM43 °FLight fog.5 mph100%29.98 "Hg1 mi
8:00 AM43 °FFog.3 mph100%29.98 "Hg0 mi
7:30 AM43 °FLight fog.5 mph100%29.98 "Hg1 mi
7:00 AM43 °FFog.6 mph100%29.95 "Hg1 mi
Weather by CustomWeather, © 2014

See weather overviewHow to use our weather pages